Greenville, MS

8:37 AM CST on December 12, 2017 (GMT -0600)
Mid Delta Regional

Weather History for KGLH - October, 2014

Change the Weather History Date:

Friday, October 31, 2014

  Actual Average Record
Temperature  
Mean Temperature 53 °F 60 °F  
Max Temperature 65 °F 71 °F 91 °F (1937)
Min Temperature 40 °F 48 °F 25 °F (1917)
Degree Days  
Heating Degree Days 12 7  
Month to date heating degree days 69 108  
Since 1 July heating degree days 69 114  
Cooling Degree Days 0 1  
Month to date cooling degree days 126 94  
Year to date cooling degree days 2174 2174  
Growing Degree Days 4 (Base 50)    
Moisture  
Dew Point 42 °F    
Average Humidity 56    
Maximum Humidity 77    
Minimum Humidity 35    
Precipitation  
Precipitation 0.00 in 0.09 in 3.57 in (1941)
Month to date precipitation 6.04 4.32  
Year to date precipitation 46.53 41.96  
Sea Level Pressure  
Sea Level Pressure 30.15 in    
Wind  
Wind Speed 14 mph (NNW)    
Max Wind Speed 28 mph    
Max Gust Speed 34 mph    
Visibility 10 miles    
Events      
T = Trace of Precipitation, MM = Missing Value Source: NWS Daily Summary

Daily Weather History Graph

Daily Weather History Graph

Search for Another Location

Airport or City:

Trip Planner

Search our weather history database for the weather conditions in past years. The results will help you decide how hot, cold, wet, or windy it might be!

Date:

Astronomy

Oct. 31, 2014 Rise Set
Actual Time 7:21 AM CDT 6:12 PM CDT
Civil Twilight 6:56 AM CDT 6:38 PM CDT
Nautical Twilight 6:26 AM CDT 7:07 PM CDT
Astronomical Twilight 5:57 AM CDT 7:36 PM CDT
Moon 2:08 PM CDT (10/31) 12:31 AM CDT (10/31)
Length of Visible Light 11h 42m
Length of Day
10h 51m
First Quarter, 57% of the Moon is Illuminated
Oct 31
First Quarter
Nov 6
Full
Nov 14
Last Quarter
Nov 22
New
Nov 29
First Quarter

Hourly Weather History & Observations

Time (CDT) Temp. Windchill Dew Point Humidity Pressure Visibility Wind Dir Wind Speed Gust Speed Precip Events Conditions
12:53 AM 54.0 °F - 46.9 °F 77% 30.05 in 9.0 mi WSW 5.8 mph - N/A   Clear
1:53 AM 55.9 °F - 46.9 °F 72% 30.04 in 9.0 mi WSW 5.8 mph - N/A   Clear
2:53 AM 55.9 °F - 48.0 °F 75% 30.03 in 9.0 mi West 9.2 mph - N/A   Clear
3:53 AM 55.0 °F - 48.0 °F 77% 30.02 in 8.0 mi WNW 9.2 mph - N/A   Partly Cloudy
4:53 AM 54.0 °F - 46.9 °F 77% 30.03 in 9.0 mi NW 8.1 mph - N/A   Clear
5:53 AM 53.1 °F - 46.9 °F 80% 30.04 in 9.0 mi NW 9.2 mph - N/A   Clear
6:53 AM 54.0 °F - 46.0 °F 75% 30.05 in 9.0 mi NW 11.5 mph - N/A   Clear
7:53 AM 54.0 °F - 46.0 °F 75% 30.08 in 8.0 mi NNW 12.7 mph - N/A   Clear
8:53 AM 57.0 °F - 46.9 °F 69% 30.11 in 8.0 mi NNW 13.8 mph - N/A   Clear
9:53 AM 60.1 °F - 46.9 °F 62% 30.13 in 10.0 mi North 16.1 mph 25.3 mph N/A   Clear
10:53 AM 62.1 °F - 48.0 °F 60% 30.14 in 10.0 mi North 20.7 mph 24.2 mph N/A   Clear
11:53 AM 64.0 °F - 48.0 °F 56% 30.14 in 10.0 mi North 19.6 mph - N/A   Clear
12:53 PM 64.0 °F - 46.0 °F 52% 30.15 in 10.0 mi North 23.0 mph 29.9 mph N/A   Partly Cloudy
1:10 PM 64.9 °F - 46.0 °F 50% 30.13 in 10.0 mi North 19.6 mph 28.8 mph N/A   Scattered Clouds
1:53 PM 64.0 °F - 46.0 °F 52% 30.14 in 10.0 mi North 23.0 mph 29.9 mph N/A   Partly Cloudy
2:53 PM 62.1 °F - 44.1 °F 52% 30.15 in 10.0 mi North 23.0 mph - N/A   Scattered Clouds
3:53 PM 61.0 °F - 43.0 °F 52% 30.16 in 10.0 mi North 19.6 mph - N/A   Overcast
4:53 PM 60.1 °F - 42.1 °F 51% 30.19 in 10.0 mi North 15.0 mph - N/A   Partly Cloudy
5:53 PM 57.0 °F - 42.1 °F 57% 30.21 in 10.0 mi North 12.7 mph - N/A   Partly Cloudy
6:53 PM 54.0 °F - 42.1 °F 64% 30.23 in 10.0 mi NNW 9.2 mph - N/A   Partly Cloudy
7:53 PM 54.0 °F - 33.1 °F 45% 30.27 in 10.0 mi North 18.4 mph - N/A   Clear
8:53 PM 51.1 °F - 25.0 °F 36% 30.30 in 10.0 mi North 21.9 mph 28.8 mph N/A   Clear
9:53 PM 48.0 °F - 27.0 °F 44% 30.33 in 10.0 mi NNE 13.8 mph - N/A   Clear
10:53 PM 44.1 °F 39.5 °F 27.0 °F 51% 30.36 in 10.0 mi North 8.1 mph - N/A   Clear
11:53 PM 39.9 °F 34.5 °F 27.0 °F 60% 30.36 in 10.0 mi North 8.1 mph - N/A   Clear